Regional Weather Roundup
Issued by NWS Newport/Morehead, NC

Current Version | Previous Version | Graphics & Text | Print | Product List | Glossary Off
Versions: 1 2 3 4 5 6 7 8 9 10 11 12 13 14 15 16 17 18 19 20 21 22 23 24 25 26 27 28 29 30 31 32 33 34 35 36 37 38 39 40 41 42 43 44 45 46 47 48 49 50

000
ASUS42 KMHX 300725
RWRMHX
WEATHER ROUNDUP FOR EASTERN NORTH CAROLINA
NATIONAL WEATHER SERVICE NEWPORT/MOREHEAD CITY NC
300 AM EDT SAT APR 30 2016

NOTE: "FAIR" INDICATES FEW OR NO CLOUDS BELOW 12,000 FEET
WITH NO SIGNIFICANT WEATHER AND/OR OBSTRUCTIONS TO VISIBILITY

NCZ015>017-031-032-045>047-102-103-300800-
NORTH COAST

CITY           SKY/WX    TMP DP  RH WIND       PRES   REMARKS
EDENTON        CLOUDY    57  56  96 NE6       30.08F
ELIZABETH CITY CLOUDY    55  53  93 N9        30.07R
KITTY HAWK     CLOUDY    55  55  99 N8        30.04R
MANTEO         NOT AVBL

$$

NCZ045>047-081-094-103-104-300800-
CENTRAL COAST

CITY           SKY/WX    TMP DP  RH WIND       PRES   REMARKS
FRISCO         CLOUDY    57  55  93 VRB7      30.04R
SWANQUARTER    NOT AVBL

$$

NCZ095-097-098-100-101-300800-
SOUTHERN COAST

CITY           SKY/WX    TMP DP  RH WIND       PRES   REMARKS
BEAUFORT       CLOUDY    63  60  90 NE6       30.02S
CEDAR ISLAND   NOT AVBL
JACKSONVILLE   CLEAR     60  58  92 N7        30.01R
PINEY ISLAND   NOT AVBL
WILMINGTON     CLEAR     62  60  93 CALM      30.00S


$$

NCZ011>013-027>030-043-044-078>080-089-090>093-098-300800-
COASTAL PLAIN

CITY           SKY/WX    TMP DP  RH WIND       PRES   REMARKS
AHOSKIE        RAIN      56  54  93 N6        30.09S
CLINTON        CLEAR     61  60  96 CALM      30.03R
ELIZABETHTOWN  CLEAR     61  61  99 CALM      30.01R FOG
GOLDSBORO      PTCLDY    59  59 100 NE7       30.02F
GREENVILLE     CLOUDY    59  59 100 NE7       30.08S
HAVELOCK       CLOUDY    62  60  93 E5        30.04R
KENANSVILLE    PTCLDY    57  56  97 CALM      30.04R FOG
KINSTON        CLOUDY    60  59  97 NE8       30.06S
NEW BERN       CLOUDY    62  59  90 NE8       30.05R
RICHLANDS      PTCLDY    56  55  97 N5        30.03R
ROCKY MOUNT    CLOUDY    59  57  93 NE7       30.07R
WASHINGTON     CLOUDY    58  56  93 NE3       30.07R
WHITEVILLE     PTCLDY    62  60  95 CALM      30.00R

$$

AMZ130-135-150-152-154-156-158-170-250-252-270-ANZ085-086-088-633-658-670-300800-
MARINE OBSERVATIONS

STATION/POSITION TIME  TEMP    WIND        PRES    WAVE   SWELL
                       AIR SEA DIR/SP/G            HT/PER HT/PER
                 (UTC) (F)     (DEG/KT/KT) (MB)    (FT/S) (FT/S)
CHESAPEAKE LIGHT 0700   53      10/ 15/ 16 1019.2
64 E VA BEACH    0650   53 53  360/ 17/ 19 1016.8    5/11   5/11
DUCK             0700   54 66   10/ 13/ 16 1016.9
2 E DUCK         0611      58                N/A     4/11   2/11
OREGON INLET     0700   55 63  350/  8/ 13 1017.4
13E OREGON INLT  0700      55                N/A     4/ 8   3/ 8
HATTERAS CG      0700   59 70   10/ 16/ 18 1016.6
DIAMOND BUOY     0650   60 74   30/ 12/ 14 1016.4    4/ 8   3/ 8
CAPE LOOKOUT     0700   64      50/ 12/ 14 1016.2
BEAUFORT LAB     0700   64 67   60/  4/  6 1015.7
30 SE NEW RVR IN 0625      67                N/A     2/ 9
27 SE WRIGHTSVLE 0708   70 70  110/  6/ 10 1015.1
5 SE WRIGHTSVLE  0608   67 68  110/  6/ 10 1016.3
225 S CAPE HAT   0650   71 71   40/ 10/ 12 1015.1    3/ 6   2/ 6
41 SE CHARLESTON 0650   74 73  130/  6/  8 1014.5    2/ 9   2/ 9

$$



USA.gov is the U.S. government's official web portal to all federal, state and local government web resources and services.